Station SNTO3 - Tom's Creek, South Slough Reserve, OR Image indicating link to RSS feed of recent meteorological observations for station SNTO3


Conditions at SNTO3 as of
(11:30 pm PDT on 04/13/2024)
0630 GMT on 04/14/2024:
     

Click on the graph icon in the table below to see a time series plot of the last five days of that observation.

5-day plot - Wind Direction Wind Direction (WDIR): N ( 360 deg true )
5-day plot - Wind Speed Wind Speed (WSPD): 1.9 kts
5-day plot - Atmospheric Pressure Atmospheric Pressure (PRES):29.97 in
5-day plot - Air Temperature Air Temperature (ATMP): 51.4 °F
5-day plot - Dew Point Dew Point (DEWP): 51.4 °F
5-day plot -  Wind Speed, Wind Gust and Atmospheric Pressure Combined plot of Wind Speed, Gust, and Air Pressure
Previous observations
TIME
(PDT)
5-day plot - Wind Direction
WDIR
 
5-day plot - Wind Speed
WSPD
kts
5-day plot - Wind Gust
GST
kts
5-day plot - Wave Height
WVHT
ft
5-day plot - Dominant Wave Period
DPD
sec
5-day plot - Average Wave Period
APD
sec
5-day plot - Mean Wave Direction
MWD
 
5-day plot - Atmospheric Pressure
PRES
in
5-day plot - Pressure Tendency
PTDY
in
5-day plot - Air Temperature
ATMP
°F
5-day plot - Water Temperature
WTMP
°F
5-day plot - Dew Point
DEWP
°F
5-day plot - Salinity
SAL
psu
5-day plot - Visibility
VIS
nmi
5-day plot - Tide (above MLLW)
TIDE
ft
2024-04-13 11:15 pm N 1.0-----29.97- 51.6- 51.6---
2024-04-13 11:00 pmNNE 1.9-----29.97+0.03 51.6- 51.6---
2024-04-13 10:45 pm- 0.0-----30.00- 51.4- 51.4---
2024-04-13 10:30 pm- 0.0-----30.00- 51.3- 51.3---
2024-04-13 10:15 pm- 0.0-----30.00- 51.3- 51.3---
2024-04-13 10:00 pm- 0.0-----30.00+0.06 51.4- 51.4---
2024-04-13 09:45 pm- 0.0-----29.97- 51.3- 51.3---
2024-04-13 09:30 pm- 0.0-----29.97- 51.3- 51.3---
2024-04-13 09:15 pm- 0.0-----29.97- 51.3- 51.3---
2024-04-13 09:00 pm- 0.0-----29.97+0.03 51.3- 51.3---
2024-04-13 08:45 pm SE 1.0-----29.97- 51.3- 51.3---
2024-04-13 08:30 pm S 1.0-----29.97- 51.3- 51.3---
2024-04-13 08:15 pm SW 4.1-----29.94- 51.3- 51.3---
2024-04-13 08:00 pmSSW 4.1-----29.94+0.00 51.3- 51.3---
2024-04-13 07:45 pm SW 2.9-----29.94- 51.4- 51.4---
2024-04-13 07:30 pm SW 4.1-----29.94- 51.6- 51.6---
2024-04-13 07:15 pmSSW 2.9-----29.94- 51.8- 51.8---
2024-04-13 07:00 pmWSW 1.0-----29.94+0.00 52.2- 52.2---
2024-04-13 06:45 pmSSW 1.0-----29.94- 52.5- 52.5---
2024-04-13 06:30 pm SW 1.9-----29.94- 52.7- 52.7---
2024-04-13 06:15 pm SW 2.9-----29.94- 52.9- 52.9---
2024-04-13 06:00 pm SW 4.1-----29.94+0.03 53.4- 53.4---
2024-04-13 05:45 pmWSW 2.9-----29.94- 53.8- 53.8---
2024-04-13 05:30 pm SW 1.9-----29.94- 54.5- 54.5---
2024-04-13 05:15 pm W 1.9-----29.94- 55.0- 55.0---
2024-04-13 05:00 pm SW 1.9-----29.94+0.06 54.1- 54.1---
2024-04-13 04:45 pm SW 1.9-----29.94- 53.6- 53.6---
2024-04-13 04:30 pm W 1.9-----29.94- 53.6- 53.6---
2024-04-13 04:15 pmSSW 4.1-----29.94- 53.8- 53.8---
2024-04-13 04:00 pm SW 4.1-----29.94+0.06 54.1- 54.1---
2024-04-13 03:45 pm SW 4.1-----29.91- 54.3- 54.3---
2024-04-13 03:30 pm SW 2.9-----29.91- 54.7- 54.7---
2024-04-13 03:15 pm SW 2.9-----29.91- 54.3- 54.3---
2024-04-13 03:00 pm W 1.9-----29.91+0.03 54.0- 54.0---
2024-04-13 02:45 pm SW 4.1-----29.91- 53.6- 53.6---
2024-04-13 02:30 pm SW 4.1-----29.91- 53.6- 53.6---
2024-04-13 02:15 pm SW 5.1-----29.91- 54.0- 54.0---
2024-04-13 02:00 pm SW 4.1-----29.88+0.00 54.3- 54.3---
2024-04-13 01:45 pmWSW 2.9-----29.88- 55.6- 55.6---
2024-04-13 01:30 pm N 1.0-----29.88- 56.5- 56.5---
2024-04-13 01:15 pm N 1.9-----29.88- 54.7- 54.7---
2024-04-13 01:00 pm N 2.9-----29.88+0.00 54.3- 54.3---
2024-04-13 12:45 pmNNW 1.9-----29.88- 54.1- 54.1---
2024-04-13 12:30 pm N 2.9-----29.88- 55.0- 55.0---
2024-04-13 12:15 pm N 2.9-----29.88- 56.1- 56.1---
2024-04-13 12:00 pm N 1.9-----29.88+0.03 55.9- 55.9---
2024-04-13 11:45 amNNE 1.0-----29.88- 55.9- 55.9---
2024-04-13 11:30 am N 1.0-----29.88- 55.4- 55.4---
2024-04-13 11:15 am- 0.0-----29.88- 55.2- 55.2---
2024-04-13 11:00 am N 1.9-----29.88+0.03 54.5- 54.5---
2024-04-13 10:45 am N 1.9-----29.88- 54.5- 54.5---
2024-04-13 10:30 amWSW 1.0-----29.88- 54.1- 54.1---
2024-04-13 10:15 am SW 1.9-----29.88- 53.6- 53.6---
2024-04-13 10:00 am- 0.0-----29.88+0.06 53.1- 53.1---
2024-04-13 09:45 amWSW 1.0-----29.88- 52.7- 52.7---
2024-04-13 09:30 am N 1.0-----29.88- 52.0- 52.0---
2024-04-13 09:15 am- 0.0-----29.88- 51.6- 51.6---
2024-04-13 09:00 am NE 1.0-----29.85+0.03 51.3- 51.3---
2024-04-13 08:45 am- 0.0-----29.85- 51.3- 51.3---
2024-04-13 08:30 am N 1.0-----29.85- 50.9- 50.9---
2024-04-13 08:15 amNNE 1.0-----29.85- 50.9- 50.9---
2024-04-13 08:00 amNNE 1.9-----29.85+0.03 50.7- 50.7---
2024-04-13 07:45 amNNE 1.9-----29.85- 50.5- 50.5---
2024-04-13 07:30 am- 0.0-----29.85- 50.5- 50.5---
2024-04-13 07:15 am- 0.0-----29.85- 50.5- 50.5---
2024-04-13 07:00 am- 0.0-----29.83+0.00 50.5- 50.5---
2024-04-13 06:45 amNNE 1.0-----29.83- 50.4- 50.4---
2024-04-13 06:30 am- 0.0-----29.83- 50.5- 50.5---
2024-04-13 06:15 amNNE 1.9-----29.83- 50.9- 50.9---
2024-04-13 06:00 amENE 1.0-----29.83+0.00 50.9- 50.9---
2024-04-13 05:45 am- 0.0-----29.83- 50.9- 50.9---
2024-04-13 05:30 am- 0.0-----29.83- 50.9- 50.9---
2024-04-13 05:15 am SW 1.0-----29.83- 51.1- 51.1---
2024-04-13 05:00 am- 0.0-----29.83+0.00 51.3- 51.3---
2024-04-13 04:45 am- 0.0-----29.83- 51.4- 51.4---
2024-04-13 04:30 am- 0.0-----29.83- 51.4- 51.4---
2024-04-13 04:15 am- 0.0-----29.83- 51.4- 51.4---
2024-04-13 04:00 am- 0.0-----29.83+0.00 51.4- 51.4---
2024-04-13 03:45 am- 0.0-----29.83- 51.6- 51.6---
2024-04-13 03:30 am E 1.0-----29.83- 51.4- 51.4---
2024-04-13 03:15 am- 0.0-----29.83- 51.4- 51.4---
2024-04-13 03:00 am NE 1.9-----29.83+0.03 51.3- 51.3---
2024-04-13 02:45 am- 0.0-----29.83- 51.3- 51.3---
2024-04-13 02:30 am- 0.0-----29.83- 51.3- 51.3---
2024-04-13 02:15 am- 0.0-----29.83- 51.3- 51.3---
2024-04-13 02:00 am- 0.0-----29.83+0.03 51.4- 51.4---
2024-04-13 01:45 am- 0.0-----29.83- 51.4- 51.4---
2024-04-13 01:30 am- 0.0-----29.83- 51.4- 51.4---
2024-04-13 01:15 am NE 1.0-----29.83- 51.6- 51.6---
2024-04-13 01:00 am SE 1.0-----29.83+0.06 51.6- 51.6---
2024-04-13 12:45 amSSW 1.9-----29.83- 51.6- 51.6---
2024-04-13 12:30 amESE 1.0-----29.83- 51.8- 51.8---
2024-04-13 12:15 am NE 1.0-----29.80- 51.8- 51.8---
2024-04-13 12:00 am- 0.0-----29.80+0.03 51.6- 51.6---